Regional Weather Roundup
Issued by NWS Kansas City/Pleasant Hill, MO

Home | Current Version | Previous Version | Text Only | Print | Product List | Glossary On
Versions: 1 2 3 4 5 6 7 8 9 10 11 12 13 14 15 16 17 18 19 20 21 22 23 24 25 26 27 28 29 30 31 32 33 34 35 36 37 38 39 40 41 42 43 44 45 46 47 48 49 50
147
ASUS43 KEAX 261410
RWREAX

WEATHER ROUNDUP FOR EASTERN KANSAS AND NORTHWEST MISSOURI
NATIONAL WEATHER SERVICE KANSAS CITY/PLEASANT HILL MO
900 AM CDT MON JUN 26 2017

KSZ040-057-103>105-MOZ028-029-037-043-261500-
...KANSAS CITY METROPOLITAN AREA...

CITY           SKY/WX    TMP DP  RH WIND       PRES   REMARKS
K.C. INTL      PTSUNNY   61  55  81 NE6       30.23R
K.C. DOWNTOWN  MOSUNNY   67  56  67 N6        30.22R
LEES SUMMIT    MOSUNNY   69  53  56 S10       30.22R
OLATHE - IXD   PTSUNNY   66  56  70 S7        30.20F
OLATHE - OJC   SUNNY     65  54  67 S8        30.20F
LAWRENCE       CLOUDY    64  59  83 CALM      30.20S

$$

MOZ001>008-011>017-020>025-030>033-038>040-044>046-053-054-261500-
...NORTHERN AND CENTRAL MISSOURI...

CITY           SKY/WX    TMP DP  RH WIND       PRES   REMARKS
ST. JOSEPH     RAIN      57  57 100 NE9       30.27R FOG
MOSBY          PTSUNNY   61  55  82 N5        30.24R
WARRENSBURG    SUNNY     64  54  68 S5        30.21R
WHITEMAN AFB   MOSUNNY   67  58  72 S6        30.20R
CLINTON        SUNNY     68  57  68 S6        30.21S
SEDALIA        SUNNY     68  57  68 S8        30.22S
WARSAW         NOT AVBL
CHILLICOTHE      N/A     61  54  77 N6        30.26R
KIRKSVILLE     MOSUNNY   61  50  67 NE8       30.24R

$$

MOZ041-047>049-056>058-063>065-088>090-097-261500-
...EASTERN AND SOUTHERN MISSOURI...

CITY           SKY/WX    TMP DP  RH WIND       PRES   REMARKS
ST. LOUIS INTL MOSUNNY   73  49  42 W7        30.22S
SPIRIT OF STL  SUNNY     70  54  56 W6        30.21F
COLUMBIA       SUNNY     68  54  60 S9        30.21S
JEFFERSON CITY SUNNY     66  54  65 SE5       30.21F
ROLLA          SUNNY     67  53  61 S7        30.22F
OSAGE BEACH    SUNNY     67  55  65 S5        30.23F
SPRINGFIELD    MOSUNNY   68  60  75 S5        30.23R
BRANSON        PTSUNNY   66  57  72 SE6       30.26F
JOPLIN         CLOUDY    71  61  70 SE6       30.22S
WEST PLAINS    CLOUDY    62  59  90 CALM      30.26F

$$

IAZ060-094-KSZ022-034>040-054-083-096-NEZ052-066-093-261500-
...KANSAS...SOUTHEAST NEBRASKA AND IOWA...

CITY           SKY/WX    TMP DP  RH WIND       PRES   REMARKS
TOPEKA         CLOUDY    67  57  70 CALM      30.20R
MANHATTAN      PTSUNNY   66  60  81 CALM      30.20S
EMPORIA        MOSUNNY   67  58  72 S9        30.20S
CHANUTE          N/A    N/A N/A N/A MISG      30.21S
WICHITA        LGT RAIN  67  56  67 SE6       30.21F
OMAHA          CLOUDY    59  54  83 SE10      30.20S
LINCOLN        TSTM      60  57  89 SE6       30.22S
FALLS CITY     LGT RAIN  59  56  89 E6        30.22F
LAMONI         LGT RAIN  55  53  93 NE5       30.27R FOG
DES MOINES     CLOUDY    58  54  86 S6        30.20S

$$





USA.gov is the U.S. government's official web portal to all federal, state and local government web resources and services.